EW5171 Weather Reports


Display with metric or nautical units.
time (UTC)temp
F
wind
direction
speed
MPH
gust
MPH
rain 1hr
in
rain 24hr
in
rain mn
in
humidity
%
barometer
mb
20260905185543 57 360 4.0 14.0 0.00 0.02 0.01 82 1011.3
20260905185039 58 254 4.0 15.0 0.00 0.02 0.01 82 1011.2
20260905184540 58 55 4.0 11.0 0.00 0.02 0.01 81 1011.1
20260905184041 58 185 5.0 11.0 0.00 0.02 0.01 81 1011.1
20260905183538 58 324 4.0 15.0 0.00 0.02 0.01 80 1011.0
20260905183038 58 190 4.0 18.0 0.00 0.02 0.01 80 1011.0
20260905182536 58 243 4.0 18.0 0.00 0.02 0.01 79 1010.8
20260905182040 58 291 3.0 16.0 0.00 0.02 0.01 79 1010.8
20260905181535 58 261 5.0 16.0 0.00 0.02 0.01 78 1010.7
20260905181034 58 275 4.0 16.0 0.00 0.02 0.01 78 1010.6
20260905180533 58 298 5.0 14.0 0.00 0.02 0.01 78 1010.3
20260905180133 58 182 5.0 14.0 0.00 0.02 0.01 78 1010.2
20260905175532 59 273 5.0 16.0 0.00 0.02 0.01 77 1010.2
20260905175031 59 269 5.0 16.0 0.00 0.02 0.01 77 1010.1
20260905174530 59 242 6.0 14.0 0.00 0.02 0.01 76 1010.0
20260905174030 60 192 4.0 15.0 0.00 0.02 0.01 76 1009.9
20260905173531 60 273 5.0 23.0 0.00 0.02 0.01 76 1009.9
20260905173030 59 300 5.0 23.0 0.00 0.02 0.01 75 1010.0
20260905172529 59 5 5.0 14.0 0.00 0.02 0.01 75 1009.9
20260905172030 59 321 4.0 16.0 0.00 0.02 0.01 75 1009.9
20260905171545 60 281 4.0 16.0 0.00 0.02 0.01 75 1010.0
20260905171028 60 5 4.0 16.0 0.00 0.02 0.01 74 1009.7
20260905170528 60 246 3.0 15.0 0.00 0.02 0.01 74 1009.7
20260905170028 60 205 5.0 16.0 0.00 0.02 0.01 74 1009.6
20260905165528 60 268 4.0 18.0 0.00 0.02 0.01 74 1009.5
20260905165027 60 302 6.0 18.0 0.00 0.02 0.01 75 1009.6
20260905164526 60 259 5.0 17.0 0.00 0.02 0.01 74 1009.4
20260905164025 60 251 5.0 17.0 0.00 0.02 0.01 74 1009.4
20260905163525 60 205 3.0 11.0 0.00 0.02 0.01 73 1009.2
20260905163025 60 225 3.0 19.0 0.00 0.02 0.01 73 1009.2
20260905162523 60 281 4.0 19.0 0.00 0.02 0.01 74 1009.0
20260905162123 60 247 5.0 20.0 0.00 0.02 0.01 73 1009.1
20260905161525 61 331 7.0 20.0 0.00 0.02 0.01 72 1009.0
20260905161025 61 313 4.0 17.0 0.00 0.02 0.01 72 1008.9
20260905160521 61 69 6.0 15.0 0.00 0.02 0.01 71 1008.8
20260905160034 61 239 5.0 14.0 0.00 0.02 0.01 71 1008.9
20260905155524 61 279 4.0 24.0 0.00 0.02 0.01 70 1008.7
20260905155020 61 254 4.0 24.0 0.00 0.02 0.01 70 1008.8
20260905154520 62 190 4.0 19.0 0.00 0.02 0.01 69 1008.5
20260905154021 62 254 7.0 19.0 0.00 0.02 0.01 69 1008.6
20260905153519 62 84 5.0 20.0 0.00 0.02 0.01 69 1008.4
20260905153022 62 284 7.0 20.0 0.00 0.02 0.01 68 1008.4
20260905152517 62 305 3.0 13.0 0.00 0.02 0.01 69 1008.4
20260905152018 62 213 3.0 18.0 0.00 0.02 0.01 68 1008.4
20260905151516 62 336 5.0 15.0 0.00 0.02 0.01 67 1008.3
20260905151016 63 242 6.0 15.0 0.00 0.02 0.01 67 1008.2
20260905150514 63 279 6.0 15.0 0.00 0.02 0.01 68 1008.2
20260905150014 62 300 4.0 14.0 0.00 0.02 0.01 68 1008.2
20260905145519 62 291 6.0 14.0 0.00 0.02 0.01 68 1008.1
20260905145114 63 271 4.0 14.0 0.00 0.02 0.01 70 1008.2
20260905144524 63 280 4.0 16.0 0.00 0.02 0.01 69 1008.0
20260905144018 63 220 4.0 17.0 0.00 0.02 0.01 70 1008.0
20260905143516 63 182 4.0 17.0 0.00 0.02 0.01 69 1008.0
20260905143013 63 217 5.0 20.0 0.00 0.02 0.01 69 1008.0
20260905142514 63 273 6.0 20.0 0.00 0.02 0.01 70 1008.2
20260905142012 63 209 4.0 20.0 0.00 0.02 0.01 70 1008.1
20260905141514 63 297 6.0 20.0 0.00 0.02 0.01 69 1008.0
20260905141011 64 195 5.0 17.0 0.00 0.02 0.01 66 1007.9
20260905140512 65 170 2.0 12.0 0.00 0.02 0.01 67 1007.7
20260905140018 65 105 3.0 12.0 0.00 0.02 0.01 66 1007.7
20260905135509 65 279 6.0 13.0 0.00 0.02 0.01 65 1007.6
20260905135009 65 227 6.0 14.0 0.00 0.02 0.01 65 1007.6
20260905134508 65 329 3.0 17.0 0.00 0.02 0.01 67 1007.5
20260905134008 65 232 4.0 17.0 0.00 0.02 0.01 64 1007.5
20260905133507 66 277 5.0 20.0 0.00 0.02 0.01 65 1007.6
20260905133008 66 301 5.0 20.0 0.00 0.02 0.01 65 1007.3
20260905132504 65 273 6.0 16.0 0.00 0.02 0.01 66 1007.2
20260905132003 65 194 7.0 16.0 0.00 0.02 0.01 66 1007.3
20260905131502 65 180 6.0 16.0 0.00 0.02 0.01 68 1007.3
20260905131002 65 273 6.0 13.0 0.01 0.02 0.01 67 1007.3
20260905130503 65 334 3.0 16.0 0.01 0.02 0.01 69 1007.2
20260905130101 64 300 4.0 16.0 0.01 0.02 0.01 71 1007.2
20260905125602 64 256 2.0 13.0 0.01 0.02 0.01 71 1007.1
20260905125100 64 309 5.0 13.0 0.01 0.02 0.01 72 1007.2
20260905124600 63 289 3.0 15.0 0.01 0.02 0.01 76 1007.1
20260905124058 62 188 2.0 15.0 0.01 0.02 0.01 77 1007.1
20260905123558 62 298 5.0 15.0 0.01 0.02 0.01 78 1007.2
20260905123104 61 292 5.0 15.0 0.01 0.02 0.01 81 1007.3
20260905122557 61 308 3.0 12.0 0.01 0.02 0.01 83 1007.2
20260905122100 62 176 4.0 16.0 0.01 0.02 0.01 79 1007.2
20260905121600 63 227 5.0 16.0 0.01 0.02 0.01 73 1007.2
20260905121100 65 297 4.0 18.0 0.01 0.02 0.01 70 1007.1
20260905120555 64 209 3.0 15.0 0.00 0.02 0.00 71 1006.9
20260905120106 64 190 4.0 15.0 0.00 0.02 0.00 70 1006.8
20260905115554 64 258 3.0 17.0 0.00 0.02 0.00 71 1006.7
20260905115157 63 229 4.0 17.0 0.00 0.02 0.00 71 1006.6
20260905114607 63 293 5.0 16.0 0.00 0.02 0.00 73 1006.6
20260905114054 63 270 5.0 16.0 0.00 0.02 0.00 71 1006.7
20260905113553 64 290 4.0 12.0 0.00 0.02 0.00 72 1006.6
20260905113057 64 305 3.0 15.0 0.00 0.02 0.00 72 1006.6
20260905112550 63 264 4.0 12.0 0.00 0.02 0.00 73 1006.7
20260905112049 63 288 4.0 16.0 0.00 0.02 0.00 75 1006.5
20260905111634 62 227 3.0 16.0 0.00 0.02 0.00 77 1006.6
20260905111047 62 41 5.0 17.0 0.00 0.02 0.00 79 1006.5
20260905110545 61 161 5.0 17.0 0.00 0.02 0.00 79 1006.5
20260905110045 61 140 5.0 12.0 0.00 0.02 0.00 78 1006.4
20260905105546 61 234 4.0 12.0 0.00 0.02 0.00 78 1006.4
20260905105045 61 195 4.0 10.0 0.00 0.02 0.00 78 1006.4
20260905104544 61 198 3.0 10.0 0.00 0.02 0.00 76 1006.2
20260905104043 62 257 3.0 9.0 0.00 0.02 0.00 77 1006.2
20260905103544 61 251 2.0 16.0 0.00 0.02 0.00 77 1006.2
20260905103043 61 141 4.0 16.0 0.00 0.02 0.00 77 1006.2
20260905102547 61 200 5.0 13.0 0.00 0.02 0.00 76 1006.1
20260905102142 61 98 3.0 13.0 0.00 0.02 0.00 76 1006.1
20260905101543 62 61 4.0 13.0 0.00 0.02 0.00 76 1006.1
20260905101040 62 135 4.0 12.0 0.00 0.02 0.00 77 1006.0
20260905100540 61 196 4.0 15.0 0.00 0.02 0.00 77 1006.0
20260905100040 61 179 6.0 15.0 0.00 0.02 0.00 78 1005.9
20260905095539 61 57 4.0 14.0 0.00 0.02 0.00 78 1006.0
20260905095038 61 285 4.0 12.0 0.00 0.02 0.00 78 1005.9
20260905094539 62 294 4.0 15.0 0.00 0.02 0.00 77 1005.9
20260905094040 62 220 5.0 15.0 0.00 0.02 0.00 76 1005.8
20260905093537 62 257 3.0 11.0 0.00 0.02 0.00 78 1005.8
20260905093041 62 273 4.0 13.0 0.00 0.02 0.00 77 1005.7
20260905092534 62 237 5.0 13.0 0.00 0.02 0.00 78 1005.8
20260905092034 62 173 2.0 13.0 0.00 0.02 0.00 78 1005.8
20260905091534 62 250 4.0 12.0 0.00 0.02 0.00 80 1005.7
20260905091032 61 341 3.0 11.0 0.00 0.02 0.00 81 1005.7
20260905090531 61 338 4.0 11.0 0.00 0.02 0.00 81 1005.8
20260905090030 60 294 3.0 11.0 0.00 0.02 0.00 82 1005.7
20260905085530 60 290 4.0 11.0 0.00 0.02 0.00 80 1005.7
20260905085028 60 298 3.0 10.0 0.00 0.02 0.00 82 1005.6
20260905084527 59 268 2.0 20.0 0.00 0.02 0.00 85 1005.5
20260905084026 59 9 3.0 20.0 0.00 0.02 0.00 85 1005.6
20260905083529 59 257 4.0 11.0 0.00 0.02 0.00 85 1005.5
20260905083024 59 261 2.0 7.0 0.00 0.02 0.00 85 1005.5
20260905082523 59 251 2.0 7.0 0.00 0.02 0.00 85 1005.4
20260905082023 59 178 3.0 10.0 0.00 0.02 0.00 86 1005.4
20260905081522 59 208 3.0 11.0 0.00 0.02 0.00 86 1005.4
20260905081021 59 182 4.0 11.0 0.00 0.02 0.00 86 1005.3
20260905080521 59 301 2.0 10.0 0.00 0.02 0.00 87 1005.2
20260905080028 58 273 3.0 13.0 0.00 0.02 0.00 87 1005.2
20260905075518 58 223 3.0 11.0 0.00 0.02 0.00 88 1005.2
20260905075018 58 293 3.0 11.0 0.00 0.02 0.00 88 1005.1
20260905074516 58 214 3.0 11.0 0.00 0.02 0.00 88 1005.1
20260905074014 58 270 3.0 11.0 0.00 0.02 0.00 89 1005.0
20260905073514 58 306 2.0 10.0 0.00 0.02 0.00 90 1004.9
20260905073013 57 313 3.0 9.0 0.00 0.02 0.00 90 1004.9
20260905072511 57 245 3.0 10.0 0.00 0.02 0.00 90 1004.9
20260905072010 57 290 1.0 10.0 0.00 0.02 0.00 91 1004.9
20260905071509 56 266 3.0 10.0 0.00 0.02 0.00 92 1004.9
20260905071011 56 287 2.0 10.0 0.00 0.02 0.00 92 1005.0
20260905070508 56 285 3.0 10.0 0.00 0.02 0.00 92 1004.8
20260905070019 56 39 1.0 8.0 0.00 0.02 0.00 92 1004.9
20260905065508 56 331 3.0 8.0 0.00 0.02 0.00 92 1004.8
20260905065010 56 166 1.0 8.0 0.00 0.02 0.00 92 1004.8
20260905064520 56 184 2.0 8.0 0.00 0.02 0.00 93 1004.8
20260905064005 56 266 2.0 11.0 0.00 0.02 0.00 93 1004.7
20260905063504 56 268 3.0 11.0 0.00 0.02 0.00 94 1004.7
20260905063004 55 215 1.0 8.0 0.00 0.02 0.00 94 1004.7
20260905062504 55 276 3.0 8.0 0.00 0.02 0.00 94 1004.7
20260905062000 55 281 2.0 8.0 0.00 0.02 0.00 95 1004.6
20260905061601 55 228 2.0 7.0 0.00 0.02 0.00 95 1004.7
20260905061058 55 257 2.0 7.0 0.00 0.02 0.00 95 1004.6
20260905060557 54 204 2.0 6.0 0.00 0.02 0.00 96 1004.6
20260905060058 54 194 2.0 5.0 0.00 0.02 0.00 95 1004.5
20260905055558 54 9 1.0 7.0 0.00 0.02 0.00 96 1004.5
20260905055057 53 336 1.0 7.0 0.00 0.02 0.00 95 1004.5
20260905054556 53 311 1.0 6.0 0.00 0.02 0.00 95 1004.4
20260905054056 53 281 1.0 7.0 0.00 0.02 0.00 95 1004.5
20260905053553 53 187 1.0 5.0 0.00 0.02 0.00 96 1004.4
20260905053053 53 254 2.0 5.0 0.00 0.02 0.00 96 1004.3
20260905052551 53 263 2.0 7.0 0.00 0.02 0.00 96 1004.3
20260905052051 53 140 2.0 10.0 0.00 0.02 0.00 96 1004.3
20260905051550 53 273 3.0 10.0 0.00 0.02 0.00 96 1004.2
20260905051049 53 311 3.0 8.0 0.00 0.02 0.00 96 1004.1
20260905050548 53 183 1.0 6.0 0.00 0.02 0.00 96 1004.1
20260905050054 53 299 2.0 6.0 0.00 0.02 0.00 96 1004.0
20260905045545 52 226 1.0 7.0 0.00 0.02 0.00 96 1004.1
20260905045045 52 275 1.0 7.0 0.00 0.02 0.00 96 1004.0
20260905044544 52 193 1.0 4.0 0.00 0.02 0.00 96 1003.9
20260905044045 52 212 1.0 4.0 0.00 0.02 0.00 96 1003.9
20260905043546 52 240 1.0 7.0 0.00 0.02 0.00 96 1003.8
20260905043041 52 305 2.0 7.0 0.00 0.02 0.00 96 1003.7
20260905042539 52 292 1.0 4.0 0.00 0.02 0.00 96 1003.7
20260905042039 53 327 1.0 6.0 0.00 0.02 0.00 96 1003.7
20260905041539 53 273 2.0 6.0 0.00 0.02 0.00 95 1003.6
20260905041038 53 263 1.0 7.0 0.00 0.02 0.00 96 1003.6
20260905040539 53 288 2.0 11.0 0.00 0.02 0.00 95 1003.6
20260905040038 53 171 3.0 11.0 0.00 0.02 0.00 95 1003.5
20260905035536 53 269 2.0 6.0 0.00 0.02 0.00 95 1003.5
20260905035036 53 213 1.0 4.0 0.00 0.02 0.00 95 1003.5
20260905034537 53 257 2.0 4.0 0.00 0.02 0.00 95 1003.4
20260905034039 53 303 1.0 5.0 0.00 0.02 0.00 95 1003.4
20260905033534 53 18 1.0 7.0 0.00 0.02 0.00 95 1003.3
20260905033034 53 209 1.0 7.0 0.00 0.02 0.00 95 1003.3
20260905032533 53 309 1.0 7.0 0.00 0.02 0.00 95 1003.2
20260905032032 53 248 1.0 7.0 0.00 0.02 0.00 95 1003.2
20260905031535 53 262 2.0 7.0 0.00 0.02 0.00 95 1003.1
20260905031031 53 219 1.0 7.0 0.00 0.02 0.00 95 1003.1
20260905030531 53 272 1.0 7.0 0.00 0.02 0.00 95 1003.0
20260905030031 53 117 1.0 7.0 0.00 0.02 0.00 95 1002.9
20260905025530 54 268 1.0 7.0 0.00 0.02 0.00 95 1003.0
20260905025032 54 277 2.0 12.0 0.00 0.02 0.00 95 1002.9
20260905024530 53 286 2.0 12.0 0.00 0.02 0.00 95 1002.9
20260905024029 53 256 1.0 9.0 0.00 0.02 0.00 95 1002.9
20260905023529 53 263 2.0 9.0 0.00 0.02 0.00 95 1003.0
20260905023027 53 215 1.0 8.0 0.00 0.02 0.00 95 1002.9
20260905022526 53 328 2.0 8.0 0.00 0.02 0.00 95 1002.8
20260905022026 53 338 1.0 6.0 0.00 0.02 0.00 95 1002.7
20260905021536 53 226 2.0 5.0 0.00 0.02 0.00 95 1002.6
20260905021024 53 327 1.0 5.0 0.00 0.02 0.00 95 1002.6
20260905020524 53 307 2.0 6.0 0.00 0.02 0.00 95 1002.6
20260905020027 53 188 1.0 8.0 0.00 0.02 0.00 95 1002.5
20260905015523 53 272 2.0 8.0 0.00 0.02 0.00 95 1002.5
20260905015023 53 192 1.0 7.0 0.00 0.02 0.00 95 1002.5
20260905014521 53 159 1.0 10.0 0.00 0.02 0.00 95 1002.4
20260905014021 54 298 2.0 10.0 0.00 0.02 0.00 95 1002.4
20260905013524 54 198 2.0 10.0 0.00 0.02 0.00 96 1002.3
20260905013024 54 238 4.0 10.0 0.00 0.02 0.00 95 1002.3
20260905012520 54 131 2.0 6.0 0.00 0.02 0.00 96 1002.2
20260905012019 54 194 1.0 8.0 0.00 0.02 0.00 96 1002.2
20260905011519 54 284 3.0 8.0 0.00 0.02 0.00 96 1002.2
20260905011019 54 275 1.0 8.0 0.00 0.02 0.00 96 1002.2
20260905010518 54 192 2.0 8.0 0.00 0.02 0.00 96 1002.1
20260905010023 54 277 2.0 9.0 0.00 0.02 0.00 96 1002.2
20260905005516 54 172 1.0 9.0 0.00 0.02 0.00 96 1002.1
20260905005017 54 286 1.0 7.0 0.00 0.02 0.00 96 1002.1
20260905004515 54 296 1.0 10.0 0.00 0.02 0.00 96 1002.0
20260905004015 54 190 3.0 10.0 0.00 0.02 0.00 96 1001.9
20260905003517 54 258 2.0 8.0 0.00 0.02 0.00 96 1001.9
20260905003015 54 305 2.0 7.0 0.00 0.02 0.00 96 1001.9
20260905002512 54 323 2.0 7.0 0.00 0.02 0.00 96 1001.8
20260905002013 54 294 2.0 8.0 0.00 0.02 0.00 96 1001.8
20260905001512 54 300 2.0 8.0 0.00 0.02 0.00 96 1001.7
20260905001011 54 139 1.0 5.0 0.00 0.02 0.00 96 1001.7
20260905000511 54 270 2.0 9.0 0.00 0.02 0.00 96 1001.6
20260905000014 54 286 2.0 9.0 0.00 0.02 0.00 96 1001.6
20260904235510 54 236 2.0 7.0 0.00 0.02 0.00 96 1001.6
20260904235009 54 174 1.0 7.0 0.00 0.02 0.00 96 1001.5
20260904234508 54 136 1.0 5.0 0.00 0.02 0.00 96 1001.5
20260904234009 54 205 0.0 6.0 0.00 0.02 0.00 96 1001.4
20260904233508 54 314 1.0 8.0 0.00 0.02 0.00 96 1001.4
20260904233008 54 225 2.0 8.0 0.00 0.02 0.00 96 1001.3
20260904232506 54 200 1.0 8.0 0.00 0.02 0.00 96 1001.4
20260904232008 54 252 2.0 9.0 0.00 0.02 0.00 96 1001.3
20260904231506 54 320 0.0 5.0 0.00 0.02 0.00 95 1001.3
20260904231005 54 299 1.0 8.0 0.00 0.02 0.00 95 1001.3
20260904230506 54 221 1.0 4.0 0.00 0.02 0.00 95 1001.3
20260904230005 54 299 1.0 4.0 0.00 0.02 0.00 95 1001.3
20260904225503 54 226 0.0 3.0 0.00 0.02 0.00 95 1001.2
20260904225006 54 265 0.0 4.0 0.00 0.02 0.00 95 1001.2
20260904224503 54 257 0.0 5.0 0.00 0.02 0.00 95 1001.2
20260904224003 54 287 1.0 5.0 0.00 0.02 0.00 95 1001.1
20260904223502 54 228 1.0 4.0 0.00 0.02 0.00 95 1001.0
20260904223002 54 197 1.0 3.0 0.00 0.02 0.00 95 1000.9
20260904222503 54 244 0.0 6.0 0.00 0.02 0.00 95 1000.9
20260904222100 54 193 2.0 7.0 0.00 0.02 0.00 95 1001.0
20260904221604 54 284 2.0 4.0 0.00 0.02 0.00 95 1001.0
20260904221100 54 248 1.0 6.0 0.00 0.02 0.00 95 1000.9
20260904220600 54 216 2.0 5.0 0.00 0.02 0.00 95 1001.0
20260904220110 54 243 1.0 7.0 0.00 0.02 0.00 95 1000.9
20260904215600 54 214 2.0 7.0 0.00 0.02 0.02 95 1000.9
20260904215101 54 196 2.0 5.0 0.00 0.02 0.02 95 1000.8
20260904214558 54 252 0.0 9.0 0.00 0.02 0.02 95 1000.9
20260904214058 54 252 2.0 9.0 0.00 0.02 0.02 95 1000.8
20260904213557 54 118 2.0 8.0 0.00 0.02 0.02 95 1000.7
20260904213101 54 238 1.0 6.0 0.00 0.02 0.02 95 1000.6
20260904212556 54 281 2.0 8.0 0.00 0.02 0.02 95 1000.6
20260904212055 54 265 2.0 8.0 0.00 0.02 0.02 95 1000.5
20260904211557 54 190 2.0 8.0 0.00 0.02 0.02 95 1000.4
20260904211054 54 185 1.0 8.0 0.00 0.02 0.02 95 1000.4
20260904210554 54 249 2.0 8.0 0.00 0.02 0.02 95 1000.3
20260904210059 54 198 2.0 10.0 0.00 0.02 0.02 95 1000.3
20260904205553 54 294 3.0 10.0 0.00 0.03 0.02 95 1000.2
20260904205052 54 288 2.0 9.0 0.00 0.03 0.02 95 1000.1
20260904204553 55 244 2.0 7.0 0.00 0.03 0.02 95 1000.1
20260904204051 55 345 3.0 11.0 0.00 0.03 0.02 95 1000.0
20260904203554 55 134 4.0 11.0 0.00 0.03 0.02 95 999.9
20260904203051 55 294 1.0 7.0 0.00 0.03 0.02 95 999.9
20260904202550 55 301 2.0 9.0 0.00 0.03 0.02 95 999.9
20260904202049 55 290 2.0 9.0 0.00 0.03 0.02 95 999.9
20260904201552 55 329 2.0 10.0 0.00 0.03 0.02 95 999.8
20260904201048 55 171 2.0 10.0 0.00 0.03 0.02 95 999.6
20260904200548 55 240 2.0 8.0 0.00 0.03 0.02 95 999.6
20260904200109 55 247 2.0 10.0 0.00 0.03 0.02 95 999.6
20260904195546 56 159 2.0 11.0 0.00 0.03 0.02 95 999.7
20260904195049 56 325 4.0 11.0 0.00 0.03 0.02 95 999.6
20260904194628 56 209 3.0 9.0 0.00 0.03 0.02 95 999.5
20260904194045 56 342 2.0 10.0 0.01 0.03 0.02 95 999.5
20260904193545 56 294 2.0 11.0 0.01 0.03 0.02 95 999.5
20260904193045 56 259 2.0 13.0 0.01 0.03 0.02 95 999.5
20260904192544 56 355 3.0 13.0 0.01 0.03 0.02 95 999.6
20260904192045 56 290 2.0 9.0 0.01 0.03 0.02 95 999.5
20260904191544 57 202 2.0 10.0 0.01 0.03 0.02 95 999.5
20260904191044 57 298 3.0 10.0 0.01 0.03 0.02 96 999.5
20260904190544 57 302 1.0 9.0 0.01 0.03 0.02 96 999.4
20260904190047 57 332 1.0 6.0 0.01 0.03 0.02 96 999.4